When you browse on this site, cookies collect data to enhance your experience and personalize the content and advertising you see.
Visit our Privacy Policy to learn more. By continuing to use the site, you agree to this use of cookies and data.
  • In Lithuania
  • List of Countries
  • For 7 days
  • Water Temperature
  • Satellite Maps
  • Weather Map
  • Weather Widgets
  • user-avatar
    Login

    Hourly Weather Kaszowka

    Today, 25 May, Saturday

    Time Temperature Precipitation Wind Pressure Humidity
    00:00 +12°C° 0 mm 2 mps 743 mmHg 73%
    01:00 +10°C° 0 mm 2 mps 743 mmHg 75%
    02:00 +10°C° 0 mm 2 mps 743 mmHg 76%
    03:00 +10°C° 0 mm 2 mps 743 mmHg 77%
    04:00 +10°C° 0 mm 2 mps 743 mmHg 78%
    05:00 +13°C° 0 mm 2 mps 743 mmHg 77%
    06:00 +15°C° 0 mm 2 mps 743 mmHg 76%
    07:00 +17°C° 0 mm 2 mps 744 mmHg 75%
    08:00 +18°C° 0.1 mm 2 mps 744 mmHg 71%
    09:00 +19°C° 0.1 mm 2 mps 744 mmHg 67%
    10:00 +20°C° 0.1 mm 2 mps 744 mmHg 63%
    11:00 +21°C° 0.4 mm 2 mps 744 mmHg 63%
    12:00 +21°C° 0.4 mm 3 mps 744 mmHg 64%
    13:00 +21°C° 0.4 mm 3 mps 744 mmHg 64%
    14:00 +21°C° 0.3 mm 3 mps 743 mmHg 65%
    15:00 +21°C° 0.3 mm 3 mps 743 mmHg 67%
    16:00 +21°C° 0.3 mm 3 mps 743 mmHg 69%
    17:00 +20°C° 0.2 mm 2 mps 743 mmHg 74%
    18:00 +18°C° 0.2 mm 2 mps 743 mmHg 80%
    19:00 +17°C° 0.2 mm 2 mps 743 mmHg 85%
    20:00 +16°C° 0 mm 2 mps 744 mmHg 87%
    21:00 +15°C° 0 mm 2 mps 744 mmHg 88%
    22:00 +14°C° 0 mm 2 mps 744 mmHg 89%
    23:00 +13°C° 0 mm 2 mps 744 mmHg 91%

    Tomorrow, 26 May, Sunday

    Time Temperature Precipitation Wind Pressure Humidity
    00:00 +12°C° 0 mm 2 mps 745 mmHg 92%
    01:00 +10°C° 0 mm 2 mps 745 mmHg 94%
    02:00 +10°C° 0 mm 2 mps 744 mmHg 94%
    03:00 +9°C° 0 mm 2 mps 744 mmHg 94%
    04:00 +9°C° 0 mm 1 mps 744 mmHg 94%
    05:00 +11°C° 0 mm 1 mps 744 mmHg 90%
    06:00 +13°C° 0 mm 1 mps 744 mmHg 86%
    07:00 +14°C° 0 mm 1 mps 745 mmHg 83%
    08:00 +16°C° 0 mm 1 mps 744 mmHg 77%
    09:00 +18°C° 0 mm 1 mps 744 mmHg 72%
    10:00 +19°C° 0 mm 2 mps 744 mmHg 66%
    11:00 +20°C° 0 mm 2 mps 744 mmHg 63%
    12:00 +21°C° 0 mm 2 mps 744 mmHg 60%
    13:00 +23°C° 0 mm 2 mps 743 mmHg 57%
    14:00 +22°C° 0 mm 3 mps 743 mmHg 58%
    15:00 +22°C° 0 mm 3 mps 743 mmHg 59%
    16:00 +22°C° 0 mm 3 mps 742 mmHg 59%
    17:00 +21°C° 0.1 mm 3 mps 742 mmHg 66%
    18:00 +20°C° 0.1 mm 2 mps 742 mmHg 72%
    19:00 +20°C° 0.1 mm 1 mps 742 mmHg 78%
    20:00 +17°C° 0 mm 2 mps 742 mmHg 81%
    21:00 +16°C° 0 mm 2 mps 743 mmHg 83%
    22:00 +15°C° 0 mm 2 mps 743 mmHg 86%
    23:00 +15°C° 0 mm 2 mps 743 mmHg 86%

    Day after tomorrow, 27 May, Monday

    Time Temperature Precipitation Wind Pressure Humidity
    00:00 +14°C° 0 mm 2 mps 742 mmHg 87%
    01:00 +14°C° 0 mm 2 mps 742 mmHg 88%
    02:00 +14°C° 0 mm 2 mps 742 mmHg 87%
    03:00 +13°C° 0 mm 2 mps 742 mmHg 87%
    04:00 +12°C° 0 mm 3 mps 741 mmHg 87%
    05:00 +14°C° 0 mm 3 mps 742 mmHg 83%
    06:00 +17°C° 0 mm 4 mps 742 mmHg 80%
    07:00 +19°C° 0 mm 4 mps 742 mmHg 77%
    08:00 +20°C° 0 mm 4 mps 742 mmHg 71%
    09:00 +21°C° 0 mm 5 mps 741 mmHg 65%
    10:00 +22°C° 0 mm 5 mps 741 mmHg 59%
    11:00 +23°C° 0 mm 5 mps 741 mmHg 57%
    12:00 +25°C° 0 mm 5 mps 741 mmHg 56%
    13:00 +25°C° 0 mm 5 mps 740 mmHg 54%
    14:00 +25°C° 0 mm 5 mps 740 mmHg 56%
    15:00 +26°C° 0 mm 4 mps 740 mmHg 58%
    16:00 +26°C° 0 mm 4 mps 740 mmHg 59%
    17:00 +24°C° 0.2 mm 3 mps 740 mmHg 67%
    18:00 +21°C° 0.2 mm 2 mps 740 mmHg 74%
    19:00 +20°C° 0.2 mm 2 mps 740 mmHg 82%
    20:00 +19°C° 0 mm 1 mps 740 mmHg 85%
    21:00 +18°C° 0 mm 1 mps 740 mmHg 87%
    22:00 +16°C° 0 mm 1 mps 740 mmHg 90%
    23:00 +16°C° 0 mm 1 mps 740 mmHg 91%

    28 May, Tuesday

    Time Temperature Precipitation Wind Pressure Humidity
    00:00 +16°C° 0 mm 1 mps 740 mmHg 91%
    01:00 +16°C° 0 mm 1 mps 739 mmHg 92%
    02:00 +15°C° 0.9 mm 1 mps 739 mmHg 93%
    03:00 +15°C° 0.9 mm 1 mps 739 mmHg 95%
    04:00 +15°C° 0.9 mm 1 mps 738 mmHg 97%
    05:00 +15°C° 2.4 mm 1 mps 738 mmHg 97%
    06:00 +15°C° 2.4 mm 2 mps 738 mmHg 98%
    07:00 +15°C° 2.4 mm 2 mps 738 mmHg 98%
    08:00 +16°C° 0.9 mm 2 mps 738 mmHg 97%
    09:00 +16°C° 0.9 mm 2 mps 738 mmHg 97%
    10:00 +16°C° 0.9 mm 2 mps 738 mmHg 96%
    11:00 +16°C° 0.4 mm 3 mps 738 mmHg 95%
    12:00 +15°C° 0.4 mm 4 mps 738 mmHg 94%
    13:00 +15°C° 0.4 mm 5 mps 738 mmHg 94%
    14:00 +15°C° 0.2 mm 5 mps 738 mmHg 94%
    15:00 +14°C° 0.2 mm 6 mps 738 mmHg 94%
    16:00 +14°C° 0.2 mm 6 mps 738 mmHg 94%
    17:00 +13°C° 0.6 mm 6 mps 738 mmHg 95%
    18:00 +13°C° 0.6 mm 6 mps 739 mmHg 95%
    19:00 +13°C° 0.6 mm 6 mps 739 mmHg 96%
    20:00 +11°C° 0.9 mm 6 mps 739 mmHg 96%
    21:00 +11°C° 0.9 mm 6 mps 740 mmHg 95%
    22:00 +11°C° 0.9 mm 6 mps 740 mmHg 95%
    23:00 +11°C° 0.6 mm 6 mps 741 mmHg 95%

    29 May, Wednesday

    Time Temperature Precipitation Wind Pressure Humidity
    00:00 +11°C° 0.6 mm 6 mps 741 mmHg 96%
    01:00 +12°C° 0.6 mm 5 mps 742 mmHg 96%
    02:00 +10°C° 0.2 mm 5 mps 742 mmHg 96%
    03:00 +9°C° 0.2 mm 6 mps 743 mmHg 95%
    04:00 +8°C° 0.2 mm 6 mps 743 mmHg 95%
    05:00 +8°C° 0.1 mm 6 mps 744 mmHg 93%
    06:00 +8°C° 0.1 mm 6 mps 745 mmHg 91%
    07:00 +7°C° 0.1 mm 5 mps 745 mmHg 89%
    08:00 +9°C° 0 mm 5 mps 746 mmHg 83%
    09:00 +10°C° 0 mm 5 mps 746 mmHg 77%
    10:00 +12°C° 0 mm 5 mps 747 mmHg 71%
    11:00 +13°C° 0 mm 5 mps 747 mmHg 70%
    12:00 +13°C° 0 mm 5 mps 747 mmHg 68%
    13:00 +14°C° 0 mm 5 mps 748 mmHg 67%
    14:00 +14°C° 0 mm 5 mps 748 mmHg 67%
    15:00 +14°C° 0 mm 4 mps 748 mmHg 67%
    16:00 +14°C° 0 mm 4 mps 748 mmHg 67%
    17:00 +13°C° 0 mm 3 mps 749 mmHg 71%
    18:00 +12°C° 0 mm 3 mps 749 mmHg 75%
    19:00 +13°C° 0 mm 2 mps 750 mmHg 79%
    20:00 +10°C° 0 mm 2 mps 750 mmHg 81%
    21:00 +10°C° 0 mm 1 mps 751 mmHg 83%
    22:00 +9°C° 0 mm 1 mps 751 mmHg 86%
    23:00 +8°C° 0 mm 1 mps 751 mmHg 87%

    30 May, Thursday

    Time Temperature Precipitation Wind Pressure Humidity
    00:00 +8°C° 0 mm 1 mps 752 mmHg 88%
    01:00 +7°C° 0 mm 1 mps 752 mmHg 89%
    02:00 +7°C° 0 mm 1 mps 752 mmHg 89%
    03:00 +6°C° 0 mm 1 mps 752 mmHg 90%
    04:00 +6°C° 0 mm 1 mps 752 mmHg 91%
    05:00 +8°C° 0 mm 1 mps 752 mmHg 86%
    06:00 +8°C° 0 mm 0 mps 752 mmHg 80%
    07:00 +10°C° 0 mm 0 mps 752 mmHg 75%
    08:00 +12°C° 0 mm 0 mps 752 mmHg 70%
    09:00 +13°C° 0 mm 0 mps 752 mmHg 65%
    10:00 +15°C° 0 mm 1 mps 752 mmHg 59%
    11:00 +16°C° 0 mm 1 mps 751 mmHg 57%
    12:00 +18°C° 0 mm 1 mps 751 mmHg 54%
    13:00 +19°C° 0 mm 1 mps 750 mmHg 52%
    14:00 +19°C° 0 mm 1 mps 750 mmHg 52%
    15:00 +19°C° 0 mm 1 mps 750 mmHg 52%
    16:00 +19°C° 0 mm 1 mps 749 mmHg 52%
    17:00 +18°C° 0 mm 1 mps 749 mmHg 59%
    18:00 +16°C° 0 mm 1 mps 749 mmHg 65%
    19:00 +15°C° 0 mm 1 mps 749 mmHg 71%
    20:00 +14°C° 0 mm 2 mps 749 mmHg 72%
    21:00 +13°C° 0 mm 2 mps 749 mmHg 74%
    22:00 +12°C° 0 mm 2 mps 749 mmHg 75%
    23:00 +10°C° 0 mm 2 mps 749 mmHg 75%
    Show more